C/2016 A1 ( PanSTARRS )

Japanese version
Home page
Updated on April 17, 2020

---------------------------------------------------------------------

* Profile

Discovery Date January 1, 2016
Magnitude 19.3 mag
Discoverer Pan-STARRS 1 telescope (Haleakala)

* Pictures

* Orbital Elements

Epoch 2017 Nov. 23.0 TT = JDT 2458080.5
T 2017 Nov. 23.37343 TT                                 Rudenko
q   5.3277605            (2000.0)            P               Q
z  -0.0003720      Peri.   10.32043     -0.53513182     +0.51121109
 +/-0.0000003      Node   128.17453     +0.70123237     -0.17512642
e   1.0019820      Incl.  121.18572     +0.47107017     +0.84142377
From 2078 observations 2016 Jan. 1-2020 Jan. 1, mean residual 0".5.

* Finding Charts

* Magnitudes Graph

        m1 = 1.2 + 5 log d + 15.0 log r

---------------------------------------------------------------------

The orbital elements are published on M.P.E.C. 2020-G65.
The charts are made with StellaNavigator Ver.10 (AstroArts).
The magnitudes graphs are made with Comet for Windows.

---------------------------------------------------------------------

Copyright(C) Seiichi Yoshida (comet@aerith.net). All rights reserved.